Regional Weather Roundup
Issued by NWS Grand Forks, ND

Home | Current Version | Previous Version | Text Only | Print | Product List | Glossary Off
Versions: 1 2 3 4 5 6 7 8 9 10 11 12 13 14 15 16 17 18 19 20 21 22 23 24 25 26 27 28 29 30 31 32 33 34 35 36 37 38 39 40 41 42 43 44 45 46 47 48 49 50

000
ASUS43 KFGF 242310
RWRFGF
PRAIRIE TO PINES  WEATHER ROUNDUP
NATIONAL WEATHER SERVICE EASTERN NORTH DAKOTA/GRAND FORKS ND
600 PM CDT THU JUL 24 2014

 **SATELLITE DATA USED TO AUGMENT SKY COVER AT AUTOMATED STATIONS**
 *****  WEATHER ACROSS EASTERN NORTH DAKOTA  *****

CITY           SKY/WX    TMP DP  RH WIND       PRES   REMARKS
GRAND FORKS    PTSUNNY   76  60  57 S14       29.87F
GRAND FRKS AFB PTSUNNY   76  64  65 SE13      29.88S
GRAND FRKS NWS   N/A     73 N/A N/A SE23        N/A
DEVILS LAKE    CLOUDY    73  63  68 S8        29.89R
FARGO          SUNNY     78  61  55 S16G28    29.86S
WAHPETON ARPT  PTCLDY    72  61  68 S17       29.85F
$$

 ***** WEATHER ACROSS CENTRAL AND WESTERN NORTH DAKOTA  *****

CITY           SKY/WX    TMP DP  RH WIND       PRES   REMARKS
BISMARCK       CLOUDY    79  65  62 E14       29.79F
MINOT          CLOUDY    76  66  71 E9G21     29.69R
JAMESTOWN      PTSUNNY   75  64  68 S13G24    29.84R
MINOT AFB      CLOUDY    76  67  72 E15       29.69S
GARRISON         N/A     74  68  81 SE18G28   29.72F
WILLISTON      SUNNY     86  65  49 S14G20    29.68F
DICKINSON      SUNNY     82  67  60 SE16      29.72F
HETTINGER      SUNNY     87  66  49 E9        29.74F
$$

 *****  OTHER AIRPORT OBSERVATIONS IN OUR AREA  *****

CITY           SKY/WX    TMP DP  RH WIND       PRES   REMARKS
WALHALLA         N/A     75  64  69 SE13        N/A
GRAFTON AIRPOR FAIR      77  59  53 S13       29.88S
VALLEY CITY AR FAIR      77  66  69 S13G21    29.85S
CANDO          CLOUDY    72  64  78 SE10      29.86F
CAVALIER APRT  FAIR      75  63  64 S9        29.88S
GWINNER        CLOUDY    73  64  73 S15       29.85S
SHEYENNE NWR     N/A     75  63  66 S16       29.95S
ROLLA          CLOUDY    72  64  78 SE15G21   29.84F
 ***** THE ABOVE OBSERVATIONS ARE NON NWS ARE NOT QUALITY
       CONTROLLED AND MAY MIS-REPORT RAIN FOR SNOW...
$$

  *****  WEATHER ACROSS NORTHERN MINNESOTA  *****

CITY           SKY/WX    TMP DP  RH WIND       PRES   REMARKS
FLAG ISLAND    PTSUNNY   72  55  56 CALM      29.92F
WARROAD        CLOUDY    70  64  83 SE5       29.94F
ROSEAU         CLOUDY    70  64  83 E5        29.92F
HALLOCK        CLOUDY    75  64  69 SE5       29.89S
THF RVR FALLS  PTSUNNY   73  61  64 S6        29.92R
BAUDETTE       CLOUDY    72  61  68 VRB5      29.95R
WASKISH        DRIZZLE   70  63  78 CALM      29.94S
CROOKSTON      MOSUNNY   77  59  53 S13       29.89F
$$
  *****  WEATHER ACROSS CENTRAL AND WEST MINNESOTA  *****

CITY           SKY/WX    TMP DP  RH WIND       PRES   REMARKS
FOSSTON        SUNNY     79  57  47 S7        29.93S
BEMIDJI        SUNNY     75  55  50 S9        29.94R
PARK RAPIDS    SUNNY     76  55  48 S12       29.92S
ELBOW LAKE     FAIR      71  62  72 S22G31    29.88F
WADENA         SUNNY     73  59  60 SW6       29.92R
DETROIT LAKES  SUNNY     73  59  60 SE5       29.92F
MOORHEAD       SUNNY     77  64  65 S13G18    29.87F
FERGUS FALLS   SUNNY     75  59  57 S20G26    29.88S
MORRIS MN      SUNNY     72  63  73 S23       29.85F
STAPLES        MOSUNNY   75  55  50 S6        29.92S
$$
  *****  WEATHER ELSEWHERE ACROSS MINNESOTA  *****

CITY           SKY/WX    TMP DP  RH WIND       PRES   REMARKS
DULUTH         CLOUDY    72  57  59 SE7       29.94F
INTRNTL FALLS  PTSUNNY   74  55  51 SW5       29.93S
ELY            MOSUNNY   73  54  49 SW6       29.95S
CLOQUET        CLOUDY    72  54  53 SE5       29.94F
WHEATON        MOSUNNY   70  61  73 SE20G28   29.86F
BRAINERD       PTSUNNY   76  56  49 S10       29.93R
HIBBING        CLOUDY    75  53  46 S7        29.92F
ALEXANDRIA     MOSUNNY   73  63  70 S13       29.92S
SAINT CLOUD    CLOUDY    80  58  46 S6        29.92R
MINNEAPOLIS    CLOUDY    78  59  51 S23G47    29.81F
$$

  *****  WEATHER ACROSS SOUTH DAKOTA  *****

CITY           SKY/WX    TMP DP  RH WIND       PRES   REMARKS
SIOUX FALLS    PTSUNNY   71  59  65 S20G32    29.90F
BROOKINGS      NOT AVBL
WATERTOWN      PTSUNNY   71  60  68 S23G32    29.86F
HURON          SUNNY     75  63  66 SE16G31   29.78F
SISSETON         N/A     72  62  71 S17G25    29.84F
ABERDEEN       SUNNY     78  61  55 S25G36    29.79F
MITCHELL       SUNNY     78  64  61 SE32G41   29.82F
PIERRE         SUNNY     93  69  45 SE26G36   29.63F HX  98
MOBRIDGE       SUNNY     84  69  60 SE22G32   29.67F
RAPID CITY     PTSUNNY   90  72  55 CALM      29.74F HX  97
$$

  *****  SOME WEATHER IN NEARBY STATES *****

CITY           SKY/WX    TMP DP  RH WIND       PRES   REMARKS
GLASGOW MT     PTSUNNY   88  60  38 W26G36    29.65R
GREAT FALLS MT SUNNY     74  27  17 W22G32    29.94S
CHEYENNE WY    PTSUNNY   84  46  26 W29G40    30.10F
SCOTTSBLUFF NE PTSUNNY  101  48  16 W22G31    29.88R HX  97
OMAHA NE       PTSUNNY   81  61  50 SE23      29.95F
DES MOINES IA  LGT RAIN  74  63  68 NE7       30.06R
DAVENPORT IA   PTSUNNY   75  56  51 SW7       30.08F
CHICAGO IL     MOSUNNY   74  43  32 E7        30.09S
EAU CLAIRE WI  CLOUDY    78  55  44 S12       29.98F
LA CROSSE WI   CLOUDY    80  58  46 SW7       30.03F
$$

  *****  SOME NATIONAL WEATHER *****

CITY           SKY/WX    TMP DP  RH WIND       PRES   REMARKS
LA GUARDIA NY  MOSUNNY   78  56  46 N9        29.84R
RALEIGH NC     TSTM      72  68  88 NE9       29.86R
ATLANTA GA     PTSUNNY   74  70  87 SW6       29.96F THUNDER
NEW ORLEANS LA MOSUNNY   88  73  61 SE5       29.93F HX  95
OKLAHOMA CITY  MOSUNNY   93  71  48 SE9       29.98F HX 100
ALBUQUERQUE NM MOSUNNY   91  38  15 SW10      30.19F
SALT LAKE CITY MOSUNNY   93  34  12 NW12G21   29.98F
LOS ANGELES CA MOSUNNY   79  62  56 W14       29.79F
BOISE ID       SUNNY     75  29  18 W8G17     30.11F
SEATTLE WA     PTSUNNY   66  52  60 SW16G23   30.22R
$$

*** WEATHER ACROSS MANITOBA...SASKATCHEWAN AND ONTARIO ***
                ***ONTARIO***

CITY           SKY/WX    TMP DP  RH WIND       PRES   REMARKS
GERALDTON      MOSUNNY   73  50  43 W13       29.90F
THUNDER BAY    MOSUNNY   73  54  49 S13       29.93F
SIOUX LOOKOUT  PTSUNNY   75  48  38 W5        29.93F
TORONTO        MOSUNNY   72  46  40 N9        30.00F
BIG TROUT LK   PTSUNNY   77  52  41 N6        29.77F
PICKLE LAKE    PTSUNNY   79  48  34 W5        29.87F
DRYDEN         SUNNY     75  48  38 S8        29.94S
KENORA         PTSUNNY   73  55  53 SW9       29.95S
$$
                *** MANITOBA***

CITY           SKY/WX    TMP DP  RH WIND       PRES   REMARKS
BRANDON        PTSUNNY   75  64  69 SE13      29.82F
DAUPHIN        SUNNY     73  63  68 SE18G24   29.80F
ISLAND LAKE    MOSUNNY   81  52  36 W5        29.86F
PILOT MOUND      N/A     73  63  68 SE15        N/A
THE PAS        CLOUDY    75  57  53 SE16      29.79F
THOMPSON       MOSUNNY   82  52  34 S3        29.82F
WINNIPEG       PTSUNNY   75  61  60 S14       29.90S
LYNN LAKE      SUNNY     81  46  30 SE13      29.83F
CHURCHILL      MOSUNNY   59  48  67 NE9       29.90F
GILLAM         PTSUNNY   79  57  47 NE8       29.81F SMOKE
$$
                ***SASKATCHEWAN***

CITY           SKY/WX    TMP DP  RH WIND       PRES   REMARKS
ESTEVAN        PTSUNNY   79  68  69 E9        29.71F
KINDERSLEY     LGT RAIN  57  55  94 S14G23    29.79F
LLOYDMINSTER   PTSUNNY   63  55  77 SE6       29.63F
PRINCE ALBERT  PTSUNNY   73  66  78 E9        29.67F
REGINA         PTSUNNY   81  66  61 SE14G22   29.66F
YORKTON        CLOUDY    75  63  64 SE15      29.74F
N. BATTLEFORD  LGT RAIN  63  57  82 W24G31    29.71R
LA RONGE       PTSUNNY   77  61  57 SE13      29.71F
SASKATOON      LGT RAIN  73  68  83 E6        29.67F
SWIFT CURRENT  CLOUDY    57  54  88 W21G30    29.81R
$$
NOTE: THESE ARE AUTOMATED STATIONS WITH LIMITED QUALITY CONTROL
      "FAIR" INDICATES FEW OR NO CLOUDS BELOW 12,000 FEET WITH NO
      SIGNIFICANT WEATHER AND/OR OBSTRUCTIONS TO VISIBILITY.
      SKY/WX - SKY CONDITION AND SIGNIFICANT WEATHER.
      TMP - AIR TEMPERATURE.    DP   - DEWPOINT TEMPERATURE.
      RH  - RELATIVE HUMIDITY.  PRES - PRESSURE.
      HX  - HEAT INDEX.         WCI  - WIND CHILL INDEX.
$



USA.gov is the U.S. government's official web portal to all federal, state and local government web resources and services.